{"data":{"norad_id":60726,"intl_designator":"2024-152G","name":"STARLINK-11235 [DTC]","alt_names":[],"object_type":"PAYLOAD","status":"ACTIVE","operator":null,"country":"US","launch_date":"2024-08-28","launch_site_code":"AFETR","launch_vehicle":null,"mission":null,"orbit_class":"UNKNOWN","rcs_meters":null,"size_class":null,"mass_kg":null,"dimensions":null,"purposes":["comms"],"wikipedia_slug":null,"has_3d_model":false,"image_url":null,"decayed_at":null,"tle_current":{"epoch":"2026-05-25T03:29:29.550624Z","epoch_age_seconds":58489,"freshness":"FRESH","line1":"1 60726U 24152G   26145.14548091  .00002275  00000+0  23639-4 0  9997","line2":"2 60726  53.1594  99.3370 0001049  60.7668 299.3455 15.69699228100979","mean_motion":15.69699228,"eccentricity":0.0001049,"inclination_deg":53.1594,"raan_deg":99.337,"arg_perigee_deg":60.7668,"mean_anomaly_deg":299.3455,"bstar":2.3639e-5,"rev_number":10097,"period_min":91.737319756139,"perigee_km":359.05077079574,"apogee_km":360.46438107778,"semimajor_km":6737.8945759368,"source":"CELESTRAK","updated_at":"2026-05-25T13:38:19.308135Z"}}}